Time,TemperatureF,DewpointF,PressureIn,WindDirection,WindDirectionDegrees,WindSpeedMPH,WindSpeedGustMPH,Humidity,HourlyPrecipIn,Conditions,Clouds,dailyrainin,SoftwareType,DateUTC
2013-04-01 00:00:00,57.9,55.9,29.89,SW,217,3.2,4.6,93,0.00,,,0.00,WeatherDisplay:10.37,2013-04-01 04:00:00,
2013-04-01 00:01:00,57.9,55.9,29.89,WSW,246,3.8,4.0,93,0.00,,,0.00,WeatherDisplay:10.37,2013-04-01 04:01:00,
2013-04-01 00:02:00,57.9,55.9,29.89,WSW,246,4.0,4.6,93,0.00,RA,,0.00,WeatherDisplay:10.37,2013-04-01 04:02:00,
2013-04-01 00:07:00,57.7,55.7,29.88,SW,228,4.3,8.1,93,0.00,CLR,,0.00,WeatherDisplay:10.37,2013-04-01 04:07:00,
2013-04-01 00:12:00,57.7,56.0,29.88,WSW,241,4.4,5.8,94,0.00,CLR,,0.00,WeatherDisplay:10.37,2013-04-01 04:12:00,
2013-04-01 00:13:00,57.7,56.0,29.88,SW,223,3.9,5.8,94,0.00,CLR,,0.00,WeatherDisplay:10.37,2013-04-01 04:13:00,
2013-04-01 00:18:00,57.8,56.1,29.88,WSW,245,5.4,5.8,94,0.00,CLR,,0.00,WeatherDisplay:10.37,2013-04-01 04:18:00,
2013-04-01 00:23:00,57.9,56.2,29.88,SW,232,3.9,5.8,94,0.00,CLR,,0.00,WeatherDisplay:10.37,2013-04-01 04:23:00,
2013-04-01 00:28:00,58.0,56.3,29.88,SSW,195,3.2,4.6,94,0.00,CLR,,0.00,WeatherDisplay:10.37,2013-04-01 04:28:00,
2013-04-01 00:34:00,58.1,56.4,29.88,WSW,256,3.0,4.6,94,0.00,CLR,,0.00,WeatherDisplay:10.37,2013-04-01 04:34:00,
2013-04-01 00:39:00,58.3,56.9,29.88,WSW,253,3.8,4.6,95,0.00,CLR,,0.00,WeatherDisplay:10.37,2013-04-01 04:39:00,
2013-04-01 00:44:00,58.4,57.0,29.88,SW,236,4.1,4.1,95,0.01,CLR,,0.00,WeatherDisplay:10.37,2013-04-01 04:44:00,
2013-04-01 00:49:00,58.4,56.7,29.88,WSW,253,2.0,5.0,94,0.00,CLR,,0.00,WeatherDisplay:10.37,2013-04-01 04:49:00,
2013-04-01 00:54:00,58.5,56.8,29.88,WSW,250,3.0,9.0,94,0.00,CLR,,0.00,WeatherDisplay:10.37,2013-04-01 04:54:00,
2013-04-01 00:59:00,58.5,56.8,29.88,WSW,237,3.0,6.0,94,0.00,CLR,,0.00,WeatherDisplay:10.37,2013-04-01 04:59:00,
2013-04-01 01:05:00,58.5,56.8,29.88,West,267,3.7,4.6,94,0.00,CLR,,0.00,WeatherDisplay:10.37,2013-04-01 05:05:00,
2013-04-01 01:10:00,58.5,56.8,29.88,SSW,208,3.3,5.8,94,0.00,CLR,,0.00,WeatherDisplay:10.37,2013-04-01 05:10:00,
2013-04-01 01:15:00,58.5,56.8,29.88,SSW,213,3.5,6.9,94,0.00,CLR,,0.00,WeatherDisplay:10.37,2013-04-01 05:15:00,
2013-04-01 01:20:00,58.5,56.8,29.88,SSW,210,4.0,5.8,94,0.00,CLR,,0.00,WeatherDisplay:10.37,2013-04-01 05:20:00,
2013-04-01 01:25:00,58.4,56.7,29.88,WSW,240,2.9,3.5,94,0.00,CLR,,0.00,WeatherDisplay:10.37,2013-04-01 05:25:00,
2013-04-01 01:30:00,58.4,56.7,29.88,SSW,210,2.8,4.0,94,0.00,CLR,,0.00,WeatherDisplay:10.37,2013-04-01 05:30:00,
2013-04-01 01:35:00,58.5,56.8,29.89,WSW,249,3.2,6.9,94,0.00,CLR,,0.00,WeatherDisplay:10.37,2013-04-01 05:35:00,
2013-04-01 01:40:00,58.5,56.8,29.88,SSE,156,3.4,6.9,94,0.00,CLR,,0.00,WeatherDisplay:10.37,2013-04-01 05:40:00,
2013-04-01 01:45:00,58.5,56.8,29.89,SW,214,2.9,3.5,94,0.00,CLR,,0.00,WeatherDisplay:10.37,2013-04-01 05:45:00,
2013-04-01 01:50:00,58.4,56.7,29.88,WSW,246,3.3,9.2,94,0.00,CLR,,0.00,WeatherDisplay:10.37,2013-04-01 05:50:00,
2013-04-01 01:55:00,58.4,56.7,29.89,WSW,240,3.3,4.6,94,0.00,CLR,,0.00,WeatherDisplay:10.37,2013-04-01 05:55:00,
2013-04-01 02:00:00,58.4,56.7,29.88,SW,223,4.7,8.1,94,0.00,CLR,,0.00,WeatherDisplay:10.37,2013-04-01 06:00:00,
2013-04-01 02:06:00,58.4,56.7,29.88,SW,223,3.0,7.0,94,0.00,CLR,,0.00,WeatherDisplay:10.37,2013-04-01 06:06:00,
2013-04-01 02:11:00,58.3,56.6,29.88,West,267,4.1,6.9,94,0.00,CLR,,0.00,WeatherDisplay:10.37,2013-04-01 06:11:00,
2013-04-01 02:17:00,58.2,56.5,29.88,SSW,207,3.4,3.5,94,0.02,RA,,0.02,WeatherDisplay:10.37,2013-04-01 06:17:00,
2013-04-01 02:22:00,58.0,56.3,29.87,SSW,205,3.5,5.8,94,0.02,RA,,0.02,WeatherDisplay:10.37,2013-04-01 06:22:00,
2013-04-01 02:27:00,58.0,56.3,29.88,SW,236,5.4,9.2,94,0.02,CLR,,0.02,WeatherDisplay:10.37,2013-04-01 06:27:00,
2013-04-01 02:32:00,58.0,56.3,29.87,WSW,257,3.1,5.8,94,0.02,CLR,,0.02,WeatherDisplay:10.37,2013-04-01 06:32:00,
2013-04-01 02:37:00,57.9,56.2,29.87,WSW,253,3.2,6.9,94,0.02,CLR,,0.02,WeatherDisplay:10.37,2013-04-01 06:37:00,
2013-04-01 02:43:00,57.9,56.2,29.87,WSW,253,3.5,4.6,94,0.02,CLR,,0.02,WeatherDisplay:10.37,2013-04-01 06:43:00,
2013-04-01 02:48:00,57.9,56.2,29.87,WSW,254,2.4,3.5,94,0.02,CLR,,0.02,WeatherDisplay:10.37,2013-04-01 06:48:00,
2013-04-01 02:53:00,57.9,56.2,29.87,West,277,4.6,6.0,94,0.02,CLR,,0.02,WeatherDisplay:10.37,2013-04-01 06:53:00,
2013-04-01 02:58:00,57.8,56.1,29.87,WSW,251,2.8,3.5,94,0.02,CLR,,0.02,WeatherDisplay:10.37,2013-04-01 06:58:00,
2013-04-01 03:03:00,57.7,56.0,29.86,West,279,3.0,4.6,94,0.03,RA,,0.03,WeatherDisplay:10.37,2013-04-01 07:03:00,
2013-04-01 03:08:00,57.7,56.0,29.86,WSW,254,3.9,6.9,94,0.03,RA,,0.03,WeatherDisplay:10.37,2013-04-01 07:08:00,
2013-04-01 03:14:00,57.7,56.0,29.86,WSW,256,4.9,8.1,94,0.01,,,0.03,WeatherDisplay:10.37,2013-04-01 07:14:00,
2013-04-01 03:19:00,57.8,56.1,29.86,SW,235,4.0,5.8,94,0.01,CLR,,0.03,WeatherDisplay:10.37,2013-04-01 07:19:00,
2013-04-01 03:24:00,57.8,56.1,29.85,West,281,4.3,6.9,94,0.01,CLR,,0.03,WeatherDisplay:10.37,2013-04-01 07:24:00,
2013-04-01 03:29:00,57.8,56.1,29.85,West,267,5.1,6.9,94,0.01,CLR,,0.03,WeatherDisplay:10.37,2013-04-01 07:29:00,
2013-04-01 03:34:00,57.8,56.1,29.85,West,267,2.5,3.5,94,0.01,CLR,,0.03,WeatherDisplay:10.37,2013-04-01 07:34:00,
2013-04-01 03:39:00,57.7,56.0,29.85,West,267,2.7,3.5,94,0.01,CLR,,0.03,WeatherDisplay:10.37,2013-04-01 07:39:00,
2013-04-01 03:44:00,57.6,55.9,29.85,West,276,3.9,3.9,94,0.01,CLR,,0.03,WeatherDisplay:10.37,2013-04-01 07:44:00,
2013-04-01 03:49:00,57.6,55.9,29.85,West,274,2.0,4.0,94,0.00,,,0.03,WeatherDisplay:10.37,2013-04-01 07:49:00,
2013-04-01 03:55:00,57.5,55.8,29.85,West,267,0.9,3.5,94,0.01,CLR,,0.03,WeatherDisplay:10.37,2013-04-01 07:55:00,
2013-04-01 04:00:00,57.4,55.7,29.85,West,267,0.0,2.3,94,0.01,CLR,,0.03,WeatherDisplay:10.37,2013-04-01 08:00:00,
2013-04-01 04:05:00,57.4,55.7,29.85,SSW,207,0.0,0.0,94,0.00,CLR,,0.03,WeatherDisplay:10.37,2013-04-01 08:05:00,
2013-04-01 04:10:00,57.3,55.6,29.85,SSW,207,1.5,2.3,94,0.00,CLR,,0.03,WeatherDisplay:10.37,2013-04-01 08:10:00,
2013-04-01 04:15:00,57.2,55.5,29.85,SSW,207,1.4,2.3,94,0.00,CLR,,0.03,WeatherDisplay:10.37,2013-04-01 08:15:00,
2013-04-01 04:20:00,57.2,55.8,29.86,SW,216,3.3,6.9,95,0.00,CLR,,0.03,WeatherDisplay:10.37,2013-04-01 08:20:00,
2013-04-01 04:25:00,57.2,55.8,29.85,South,179,6.1,11.5,95,0.00,CLR,,0.03,WeatherDisplay:10.37,2013-04-01 08:25:00,
2013-04-01 04:30:00,57.3,55.9,29.85,WSW,238,2.0,5.8,95,0.00,CLR,,0.03,WeatherDisplay:10.37,2013-04-01 08:30:00,
2013-04-01 04:35:00,57.3,55.9,29.85,West,261,2.6,4.6,95,0.00,CLR,,0.03,WeatherDisplay:10.37,2013-04-01 08:35:00,
2013-04-01 04:40:00,57.4,56.0,29.85,SW,232,1.1,3.5,95,0.00,CLR,,0.03,WeatherDisplay:10.37,2013-04-01 08:40:00,
2013-04-01 04:45:00,57.5,56.1,29.85,WSW,242,0.8,2.3,95,0.00,CLR,,0.03,WeatherDisplay:10.37,2013-04-01 08:45:00,
2013-04-01 04:50:00,57.5,56.1,29.85,West,274,1.3,2.3,95,0.00,CLR,,0.03,WeatherDisplay:10.37,2013-04-01 08:50:00,
2013-04-01 04:55:00,57.5,56.1,29.84,SSW,205,1.6,3.5,95,0.00,CLR,,0.03,WeatherDisplay:10.37,2013-04-01 08:55:00,
2013-04-01 05:00:00,57.5,56.1,29.84,SW,223,1.0,2.3,95,0.00,CLR,,0.03,WeatherDisplay:10.37,2013-04-01 09:00:00,
2013-04-01 05:06:00,57.5,56.1,29.84,SW,223,1.7,3.5,95,0.00,CLR,,0.03,WeatherDisplay:10.37,2013-04-01 09:06:00,
2013-04-01 05:11:00,57.5,56.1,29.84,SSW,212,0.8,3.5,95,0.00,CLR,,0.03,WeatherDisplay:10.37,2013-04-01 09:11:00,
2013-04-01 05:16:00,57.4,56.0,29.84,SSW,212,0.9,3.5,95,0.00,CLR,,0.03,WeatherDisplay:10.37,2013-04-01 09:16:00,
2013-04-01 05:22:00,57.4,56.0,29.84,SSW,202,0.5,2.3,95,0.00,CLR,,0.03,WeatherDisplay:10.37,2013-04-01 09:22:00,
2013-04-01 05:27:00,57.4,56.0,29.84,South,178,0.0,1.1,95,0.00,CLR,,0.03,WeatherDisplay:10.37,2013-04-01 09:27:00,
2013-04-01 05:32:00,57.5,56.1,29.84,South,178,1.0,3.0,95,0.00,CLR,,0.03,WeatherDisplay:10.37,2013-04-01 09:32:00,
2013-04-01 05:38:00,57.5,56.1,29.83,WNW,286,1.3,3.5,95,0.00,CLR,,0.03,WeatherDisplay:10.37,2013-04-01 09:38:00,
2013-04-01 05:43:00,57.4,56.0,29.83,WNW,286,0.0,1.1,95,0.00,CLR,,0.03,WeatherDisplay:10.37,2013-04-01 09:43:00,
2013-04-01 05:48:00,57.4,56.0,29.83,WSW,254,0.1,1.1,95,0.00,CLR,,0.03,WeatherDisplay:10.37,2013-04-01 09:48:00,
2013-04-01 05:53:00,57.3,55.9,29.84,WSW,253,1.4,2.3,95,0.00,CLR,,0.03,WeatherDisplay:10.37,2013-04-01 09:53:00,
2013-04-01 05:58:00,57.3,55.9,29.84,South,187,1.1,3.5,95,0.00,CLR,,0.03,WeatherDisplay:10.37,2013-04-01 09:58:00,
2013-04-01 06:03:00,57.2,55.8,29.84,South,187,0.6,3.5,95,0.00,CLR,,0.03,WeatherDisplay:10.37,2013-04-01 10:03:00,
2013-04-01 06:08:00,57.1,55.7,29.84,South,189,2.2,3.5,95,0.00,CLR,,0.03,WeatherDisplay:10.37,2013-04-01 10:08:00,
2013-04-01 06:14:00,57.1,55.7,29.84,SSW,196,0.1,1.1,95,0.00,CLR,,0.03,WeatherDisplay:10.37,2013-04-01 10:14:00,
2013-04-01 06:19:00,57.1,55.7,29.84,SSW,192,2.6,4.6,95,0.00,CLR,,0.03,WeatherDisplay:10.37,2013-04-01 10:19:00,
2013-04-01 06:24:00,57.1,55.7,29.84,SSW,192,0.0,2.3,95,0.00,CLR,,0.03,WeatherDisplay:10.37,2013-04-01 10:24:00,
2013-04-01 06:29:00,57.1,55.7,29.83,SSW,193,0.0,0.0,95,0.00,CLR,,0.03,WeatherDisplay:10.37,2013-04-01 10:29:00,
2013-04-01 06:34:00,57.0,55.6,29.84,SSW,193,0.0,1.0,95,0.00,CLR,,0.03,WeatherDisplay:10.37,2013-04-01 10:34:00,
2013-04-01 06:39:00,56.9,55.5,29.84,SSW,193,1.0,2.0,95,0.00,CLR,,0.03,WeatherDisplay:10.37,2013-04-01 10:39:00,
2013-04-01 06:44:00,57.0,55.6,29.84,SSW,193,0.0,1.0,95,0.00,CLR,,0.03,WeatherDisplay:10.37,2013-04-01 10:44:00,
2013-04-01 06:49:00,56.9,55.5,29.85,SSW,193,0.0,2.0,95,0.00,CLR,,0.03,WeatherDisplay:10.37,2013-04-01 10:49:00,
2013-04-01 06:54:00,57.0,55.6,29.85,SSW,193,1.0,3.0,95,0.00,CLR,,0.03,WeatherDisplay:10.37,2013-04-01 10:54:00,
2013-04-01 06:59:00,57.1,55.6,29.85,SSW,193,0.0,3.0,95,0.00,CLR,,0.03,WeatherDisplay:10.37,2013-04-01 10:59:00,
2013-04-01 07:04:00,57.1,56.0,29.85,SSW,195,2.0,3.0,96,0.00,CLR,,0.03,WeatherDisplay:10.37,2013-04-01 11:04:00,
2013-04-01 07:09:00,57.3,56.2,29.85,WSW,243,3.0,5.0,96,0.00,CLR,,0.03,WeatherDisplay:10.37,2013-04-01 11:09:00,
2013-04-01 07:14:00,57.6,56.5,29.86,WNW,303,5.0,7.0,96,0.00,CLR,,0.03,WeatherDisplay:10.37,2013-04-01 11:14:00,
2013-04-01 07:19:00,57.8,56.7,29.86,NW,318,3.0,6.0,96,0.00,CLR,,0.03,WeatherDisplay:10.37,2013-04-01 11:19:00,
2013-04-01 07:24:00,58.0,56.9,29.86,NW,318,2.0,5.0,96,0.00,CLR,,0.03,WeatherDisplay:10.37,2013-04-01 11:24:00,
2013-04-01 07:29:00,58.2,57.1,29.86,NW,306,2.0,5.0,96,0.00,CLR,,0.03,WeatherDisplay:10.37,2013-04-01 11:29:00,
2013-04-01 07:34:00,58.4,57.3,29.87,WNW,301,2.0,4.0,96,0.00,CLR,,0.03,WeatherDisplay:10.37,2013-04-01 11:34:00,
2013-04-01 07:39:00,58.5,57.4,29.88,WNW,302,2.0,3.0,96,0.00,CLR,,0.03,WeatherDisplay:10.37,2013-04-01 11:39:00,
2013-04-01 07:44:00,58.6,57.2,29.88,WNW,301,2.0,4.0,95,0.00,CLR,,0.03,WeatherDisplay:10.37,2013-04-01 11:44:00,
2013-04-01 07:49:00,58.8,57.4,29.88,WNW,301,1.0,4.0,95,0.00,CLR,,0.03,WeatherDisplay:10.37,2013-04-01 11:49:00,
2013-04-01 07:54:00,59.0,58.2,29.88,WNW,292,2.0,4.0,97,0.00,CLR,,0.03,WeatherDisplay:10.37,2013-04-01 11:54:00,
2013-04-01 07:59:00,59.2,57.8,29.88,West,275,1.0,3.0,95,0.00,CLR,,0.03,WeatherDisplay:10.37,2013-04-01 11:59:00,
2013-04-01 08:04:00,59.4,58.0,29.88,West,263,0.0,4.0,95,0.00,CLR,,0.03,WeatherDisplay:10.37,2013-04-01 12:04:00,
2013-04-01 08:09:00,59.6,58.2,29.88,West,263,1.7,3.5,95,0.00,CLR,,0.03,WeatherDisplay:10.37,2013-04-01 12:09:00,
2013-04-01 08:14:00,59.8,58.4,29.88,West,263,0.7,2.3,95,0.00,CLR,,0.03,WeatherDisplay:10.37,2013-04-01 12:14:00,
2013-04-01 08:20:00,60.0,58.6,29.88,West,263,1.0,2.3,95,0.00,CLR,,0.03,WeatherDisplay:10.37,2013-04-01 12:20:00,
2013-04-01 08:25:00,60.1,58.4,29.89,West,263,0.0,1.1,94,0.00,CLR,,0.03,WeatherDisplay:10.37,2013-04-01 12:25:00,
2013-04-01 08:30:00,60.2,58.5,29.88,West,263,0.0,0.0,94,0.00,CLR,,0.03,WeatherDisplay:10.37,2013-04-01 12:30:00,
2013-04-01 08:35:00,60.3,58.6,29.88,West,263,0.0,0.0,94,0.00,CLR,,0.03,WeatherDisplay:10.37,2013-04-01 12:35:00,
2013-04-01 08:41:00,60.3,58.6,29.88,West,263,0.0,0.0,94,0.00,CLR,,0.03,WeatherDisplay:10.37,2013-04-01 12:41:00,
2013-04-01 08:46:00,60.3,58.6,29.88,West,263,0.0,0.0,94,0.00,CLR,,0.03,WeatherDisplay:10.37,2013-04-01 12:46:00,
2013-04-01 08:51:00,60.3,58.6,29.88,West,263,0.0,0.0,94,0.00,CLR,,0.03,WeatherDisplay:10.37,2013-04-01 12:51:00,
2013-04-01 08:57:00,60.4,58.7,29.88,West,263,1.2,3.0,94,0.00,CLR,,0.03,WeatherDisplay:10.37,2013-04-01 12:57:00,
2013-04-01 09:02:00,60.4,58.7,29.88,West,263,0.0,0.0,94,0.00,CLR,,0.03,WeatherDisplay:10.37,2013-04-01 13:02:00,
2013-04-01 09:07:00,60.4,58.7,29.88,West,263,0.1,2.3,94,0.00,CLR,,0.03,WeatherDisplay:10.37,2013-04-01 13:07:00,
2013-04-01 09:12:00,60.5,58.8,29.87,SSW,199,0.0,3.5,94,0.00,CLR,,0.03,WeatherDisplay:10.37,2013-04-01 13:12:00,
2013-04-01 09:17:00,60.5,58.8,29.87,SSW,192,1.0,3.5,94,0.00,CLR,,0.03,WeatherDisplay:10.37,2013-04-01 13:17:00,
2013-04-01 09:22:00,60.5,58.5,29.88,SSW,197,2.6,3.5,93,0.00,CLR,,0.03,WeatherDisplay:10.37,2013-04-01 13:22:00,
2013-04-01 09:28:00,60.6,58.6,29.88,South,187,3.5,5.8,93,0.00,CLR,,0.03,WeatherDisplay:10.37,2013-04-01 13:28:00,
2013-04-01 09:33:00,60.6,58.6,29.88,SSW,197,3.3,7.0,93,0.00,CLR,,0.03,WeatherDisplay:10.37,2013-04-01 13:33:00,
2013-04-01 09:38:00,60.7,58.7,29.88,South,186,3.5,6.9,93,0.00,CLR,,0.03,WeatherDisplay:10.37,2013-04-01 13:38:00,
2013-04-01 09:43:00,60.9,58.9,29.88,SSW,197,2.8,4.6,93,0.00,CLR,,0.03,WeatherDisplay:10.37,2013-04-01 13:43:00,
2013-04-01 09:48:00,60.9,58.6,29.88,SSW,193,2.4,6.9,92,0.00,CLR,,0.03,WeatherDisplay:10.37,2013-04-01 13:48:00,
2013-04-01 09:53:00,61.0,58.7,29.89,SSW,201,3.8,9.2,92,0.00,CLR,,0.03,WeatherDisplay:10.37,2013-04-01 13:53:00,
2013-04-01 09:58:00,61.0,58.4,29.89,SSW,211,2.5,4.6,91,0.00,CLR,,0.03,WeatherDisplay:10.37,2013-04-01 13:58:00,
2013-04-01 10:04:00,60.7,58.1,29.89,SSW,192,3.4,5.0,91,0.00,CLR,,0.03,WeatherDisplay:10.37,2013-04-01 14:04:00,
2013-04-01 10:09:00,60.3,57.4,29.89,SSW,194,2.8,6.9,90,0.00,CLR,,0.03,WeatherDisplay:10.37,2013-04-01 14:09:00,
2013-04-01 10:14:00,60.1,57.5,29.89,SSW,196,3.8,8.1,91,0.00,CLR,,0.03,WeatherDisplay:10.37,2013-04-01 14:14:00,
2013-04-01 10:19:00,59.9,57.3,29.89,South,182,4.6,8.1,91,0.00,CLR,,0.03,WeatherDisplay:10.37,2013-04-01 14:19:00,
2013-04-01 10:24:00,59.9,57.6,29.89,SSW,193,6.0,8.0,92,0.00,CLR,,0.03,WeatherDisplay:10.37,2013-04-01 14:24:00,
2013-04-01 10:29:00,59.8,57.5,29.89,South,188,5.0,10.0,92,0.00,CLR,,0.03,WeatherDisplay:10.37,2013-04-01 14:29:00,
2013-04-01 10:34:00,59.7,57.4,29.89,SSW,198,3.0,10.0,92,0.00,CLR,,0.03,WeatherDisplay:10.37,2013-04-01 14:34:00,
2013-04-01 10:39:00,59.7,57.4,29.89,SSW,209,3.0,12.0,92,0.00,CLR,,0.03,WeatherDisplay:10.37,2013-04-01 14:39:00,
2013-04-01 10:45:00,59.7,57.4,29.89,SW,214,4.4,5.8,92,0.00,CLR,,0.03,WeatherDisplay:10.37,2013-04-01 14:45:00,
2013-04-01 10:50:00,59.6,57.3,29.89,SSW,205,3.3,6.9,92,0.00,CLR,,0.03,WeatherDisplay:10.37,2013-04-01 14:50:00,
2013-04-01 10:55:00,59.5,57.2,29.89,South,173,3.6,6.9,92,0.00,CLR,,0.03,WeatherDisplay:10.37,2013-04-01 14:55:00,
2013-04-01 11:00:00,59.4,57.1,29.89,SW,218,1.2,6.9,92,0.00,CLR,,0.03,WeatherDisplay:10.37,2013-04-01 15:00:00,
2013-04-01 11:05:00,59.3,57.3,29.89,SSW,207,2.1,3.5,93,0.00,CLR,,0.03,WeatherDisplay:10.37,2013-04-01 15:05:00,
2013-04-01 11:10:00,59.4,57.4,29.88,SSW,206,1.4,4.6,93,0.00,CLR,,0.03,WeatherDisplay:10.37,2013-04-01 15:10:00,
2013-04-01 11:15:00,59.8,58.1,29.87,South,191,1.8,3.5,94,0.00,CLR,,0.03,WeatherDisplay:10.37,2013-04-01 15:15:00,
2013-04-01 11:20:00,60.1,58.4,29.87,SSW,211,1.9,2.3,94,0.00,CLR,,0.03,WeatherDisplay:10.37,2013-04-01 15:20:00,
2013-04-01 11:26:00,60.4,58.7,29.87,South,190,4.1,5.8,94,0.00,CLR,,0.03,WeatherDisplay:10.37,2013-04-01 15:26:00,
2013-04-01 11:31:00,60.3,58.3,29.87,SSW,204,5.5,6.9,93,0.00,CLR,,0.03,WeatherDisplay:10.37,2013-04-01 15:31:00,
2013-04-01 11:36:00,60.2,58.2,29.87,SSW,195,2.3,3.5,93,0.00,CLR,,0.03,WeatherDisplay:10.37,2013-04-01 15:36:00,
2013-04-01 11:41:00,60.2,58.2,29.87,SSW,194,4.2,9.0,93,0.00,CLR,,0.03,WeatherDisplay:10.37,2013-04-01 15:41:00,
2013-04-01 11:46:00,60.4,58.7,29.87,SW,219,4.0,8.1,94,0.00,CLR,,0.03,WeatherDisplay:10.37,2013-04-01 15:46:00,
2013-04-01 11:51:00,60.7,59.0,29.87,SSW,207,2.8,4.6,94,0.00,CLR,,0.03,WeatherDisplay:10.37,2013-04-01 15:51:00,
2013-04-01 11:57:00,60.8,59.1,29.88,South,178,1.5,4.0,94,0.00,CLR,,0.03,WeatherDisplay:10.37,2013-04-01 15:57:00,
2013-04-01 12:02:00,61.0,59.0,29.88,SSE,150,2.9,4.6,93,0.00,CLR,,0.03,WeatherDisplay:10.37,2013-04-01 16:02:00,
2013-04-01 12:07:00,60.9,58.9,29.88,SSW,200,1.3,3.5,93,0.00,CLR,,0.03,WeatherDisplay:10.37,2013-04-01 16:07:00,
2013-04-01 12:12:00,61.3,59.6,29.88,SW,224,3.1,3.5,94,0.00,CLR,,0.03,WeatherDisplay:10.37,2013-04-01 16:12:00,
2013-04-01 12:17:00,61.9,59.9,29.88,SW,215,1.3,3.5,93,0.00,CLR,,0.03,WeatherDisplay:10.37,2013-04-01 16:17:00,
2013-04-01 12:22:00,62.3,59.9,29.87,SSW,204,1.1,4.6,92,0.00,CLR,,0.03,WeatherDisplay:10.37,2013-04-01 16:22:00,
2013-04-01 12:27:00,62.3,59.3,29.88,SSW,197,4.7,5.8,90,0.00,CLR,,0.03,WeatherDisplay:10.37,2013-04-01 16:27:00,
2013-04-01 12:33:00,61.9,58.9,29.88,SW,222,5.0,6.9,90,0.00,CLR,,0.03,WeatherDisplay:10.37,2013-04-01 16:33:00,
2013-04-01 12:39:00,61.4,58.4,29.88,South,189,1.8,3.5,90,0.00,CLR,,0.03,WeatherDisplay:10.37,2013-04-01 16:39:00,
2013-04-01 12:44:00,61.3,58.7,29.87,SW,218,2.3,3.5,91,0.00,CLR,,0.03,WeatherDisplay:10.37,2013-04-01 16:44:00,
2013-04-01 12:49:00,61.2,58.6,29.86,West,269,3.7,6.9,91,0.00,CLR,,0.03,WeatherDisplay:10.37,2013-04-01 16:49:00,
2013-04-01 12:54:00,61.3,59.0,29.86,West,265,2.7,7.0,92,0.00,CLR,,0.03,WeatherDisplay:10.37,2013-04-01 16:54:00,
2013-04-01 12:59:00,61.4,58.7,29.86,West,267,4.0,4.6,91,0.00,CLR,,0.03,WeatherDisplay:10.37,2013-04-01 16:59:00,
2013-04-01 13:04:00,61.6,59.3,29.86,WNW,300,3.2,5.0,92,0.00,CLR,,0.03,WeatherDisplay:10.37,2013-04-01 17:04:00,
2013-04-01 13:09:00,61.8,59.1,29.86,WNW,282,4.8,9.2,91,0.00,CLR,,0.03,WeatherDisplay:10.37,2013-04-01 17:09:00,
2013-04-01 13:14:00,61.6,59.0,29.86,WNW,283,6.0,10.0,91,0.00,CLR,,0.03,WeatherDisplay:10.37,2013-04-01 17:14:00,
2013-04-01 13:19:00,61.5,58.8,29.86,WNW,291,6.0,9.0,91,0.00,CLR,,0.03,WeatherDisplay:10.37,2013-04-01 17:19:00,
2013-04-01 13:24:00,61.3,58.7,29.86,WNW,297,6.0,9.0,91,0.00,CLR,,0.03,WeatherDisplay:10.37,2013-04-01 17:24:00,
2013-04-01 13:29:00,61.2,58.8,29.86,WNW,295,5.0,9.0,92,0.00,CLR,,0.03,WeatherDisplay:10.37,2013-04-01 17:29:00,
2013-04-01 13:34:00,61.0,58.7,29.86,WNW,300,6.0,8.0,92,0.00,CLR,,0.03,WeatherDisplay:10.37,2013-04-01 17:34:00,
2013-04-01 13:40:00,60.8,58.5,29.86,NW,310,7.6,10.4,92,0.00,CLR,,0.03,WeatherDisplay:10.37,2013-04-01 17:40:00,
2013-04-01 13:45:00,60.7,58.7,29.86,WNW,292,4.8,6.9,93,0.00,CLR,,0.03,WeatherDisplay:10.37,2013-04-01 17:45:00,
2013-04-01 13:50:00,60.8,58.8,29.85,West,262,0.3,3.5,93,0.00,CLR,,0.03,WeatherDisplay:10.37,2013-04-01 17:50:00,
2013-04-01 13:55:00,61.1,59.1,29.85,West,262,2.1,3.5,93,0.00,CLR,,0.03,WeatherDisplay:10.37,2013-04-01 17:55:00,
2013-04-01 14:01:00,61.4,59.4,29.85,WNW,300,3.9,4.6,93,0.00,CLR,,0.03,WeatherDisplay:10.37,2013-04-01 18:01:00,
2013-04-01 14:06:00,61.5,59.2,29.85,WNW,300,0.2,2.3,92,0.00,CLR,,0.03,WeatherDisplay:10.37,2013-04-01 18:06:00,
2013-04-01 14:11:00,61.8,59.5,29.85,West,269,0.1,3.0,92,0.00,CLR,,0.03,WeatherDisplay:10.37,2013-04-01 18:11:00,
2013-04-01 14:16:00,62.0,59.3,29.85,SSW,197,3.3,4.6,91,0.00,CLR,,0.03,WeatherDisplay:10.37,2013-04-01 18:16:00,
2013-04-01 14:21:00,62.0,59.3,29.84,South,190,0.9,3.5,91,0.00,CLR,,0.03,WeatherDisplay:10.37,2013-04-01 18:21:00,
2013-04-01 14:26:00,62.0,59.3,29.84,South,191,1.0,3.0,91,0.00,CLR,,0.03,WeatherDisplay:10.37,2013-04-01 18:26:00,
2013-04-01 14:32:00,61.8,58.8,29.84,SW,215,3.1,4.6,90,0.00,CLR,,0.03,WeatherDisplay:10.37,2013-04-01 18:32:00,
2013-04-01 14:37:00,61.6,58.6,29.84,SSW,196,2.2,5.0,90,0.00,CLR,,0.03,WeatherDisplay:10.37,2013-04-01 18:37:00,
2013-04-01 14:42:00,61.5,58.5,29.84,South,170,1.7,3.5,90,0.00,CLR,,0.03,WeatherDisplay:10.37,2013-04-01 18:42:00,
2013-04-01 14:47:00,61.4,58.4,29.84,South,182,2.5,4.6,90,0.00,CLR,,0.03,WeatherDisplay:10.37,2013-04-01 18:47:00,
2013-04-01 14:52:00,61.2,58.2,29.84,SSW,195,3.3,3.3,90,0.00,CLR,,0.03,WeatherDisplay:10.37,2013-04-01 18:52:00,
2013-04-01 14:58:00,61.1,58.1,29.83,SSW,192,2.9,4.6,90,0.00,CLR,,0.03,WeatherDisplay:10.37,2013-04-01 18:58:00,
2013-04-01 15:03:00,61.1,58.1,29.83,South,180,3.5,5.8,90,0.00,CLR,,0.03,WeatherDisplay:10.37,2013-04-01 19:03:00,
2013-04-01 15:08:00,61.3,58.7,29.83,South,181,1.3,2.3,91,0.00,CLR,,0.03,WeatherDisplay:10.37,2013-04-01 19:08:00,
2013-04-01 15:13:00,61.4,58.4,29.83,South,181,0.1,0.0,90,0.00,CLR,,0.03,WeatherDisplay:10.37,2013-04-01 19:13:00,
2013-04-01 15:18:00,62.5,59.5,29.83,South,181,0.0,0.0,90,0.00,CLR,,0.03,WeatherDisplay:10.37,2013-04-01 19:18:00,
2013-04-01 15:23:00,63.0,59.7,29.83,South,181,0.1,2.3,89,0.00,CLR,,0.03,WeatherDisplay:10.37,2013-04-01 19:23:00,
2013-04-01 15:28:00,63.0,59.1,29.83,SSW,199,3.3,5.0,87,0.00,CLR,,0.03,WeatherDisplay:10.37,2013-04-01 19:28:00,
2013-04-01 15:34:00,62.9,59.3,29.82,South,171,1.9,4.6,88,0.00,CLR,,0.03,WeatherDisplay:10.37,2013-04-01 19:34:00,
2013-04-01 15:39:00,62.9,59.3,29.83,SSW,192,1.4,3.5,88,0.00,CLR,,0.03,WeatherDisplay:10.37,2013-04-01 19:39:00,
2013-04-01 15:44:00,63.1,59.5,29.82,SSW,195,3.1,4.0,88,0.00,CLR,,0.03,WeatherDisplay:10.37,2013-04-01 19:44:00,
2013-04-01 15:49:00,63.1,59.5,29.83,SSW,196,2.3,3.5,88,0.00,CLR,,0.03,WeatherDisplay:10.37,2013-04-01 19:49:00,
2013-04-01 15:54:00,63.2,59.6,29.83,SSW,193,1.7,3.5,88,0.00,CLR,,0.03,WeatherDisplay:10.37,2013-04-01 19:54:00,
2013-04-01 15:59:00,63.2,59.6,29.82,South,172,4.3,6.9,88,0.00,CLR,,0.03,WeatherDisplay:10.37,2013-04-01 19:59:00,
2013-04-01 16:04:00,62.9,59.3,29.82,SW,215,4.2,8.1,88,0.00,CLR,,0.03,WeatherDisplay:10.37,2013-04-01 20:04:00,
2013-04-01 16:09:00,62.7,59.1,29.82,SSE,163,5.1,5.1,88,0.00,CLR,,0.03,WeatherDisplay:10.37,2013-04-01 20:09:00,
2013-04-01 16:14:00,62.4,58.5,29.82,SSW,197,6.0,8.0,87,0.00,CLR,,0.03,WeatherDisplay:10.37,2013-04-01 20:14:00,
2013-04-01 16:19:00,62.6,58.7,29.82,SSW,193,5.0,10.0,87,0.00,CLR,,0.03,WeatherDisplay:10.37,2013-04-01 20:19:00,
2013-04-01 16:24:00,62.7,58.8,29.82,South,188,2.0,8.0,87,0.00,CLR,,0.03,WeatherDisplay:10.37,2013-04-01 20:24:00,
2013-04-01 16:29:00,62.9,59.0,29.82,SSW,194,1.0,5.0,87,0.00,CLR,,0.03,WeatherDisplay:10.37,2013-04-01 20:29:00,
2013-04-01 16:34:00,63.2,59.0,29.82,SSW,197,5.0,8.0,86,0.00,CLR,,0.03,WeatherDisplay:10.37,2013-04-01 20:34:00,
2013-04-01 16:39:00,63.0,58.8,29.82,SSW,199,2.0,9.0,86,0.00,CLR,,0.03,WeatherDisplay:10.37,2013-04-01 20:39:00,
2013-04-01 16:44:00,62.9,58.6,29.81,SSW,201,3.0,7.0,86,0.00,CLR,,0.03,WeatherDisplay:10.37,2013-04-01 20:44:00,
2013-04-01 16:49:00,62.9,58.9,29.82,SSW,200,5.0,8.0,87,0.00,CLR,,0.03,WeatherDisplay:10.37,2013-04-01 20:49:00,
2013-04-01 16:54:00,62.9,59.0,29.82,SSW,197,5.0,7.0,87,0.00,CLR,,0.03,WeatherDisplay:10.37,2013-04-01 20:54:00,
2013-04-01 16:59:00,63.2,59.3,29.82,South,191,3.0,6.0,87,0.00,CLR,,0.03,WeatherDisplay:10.37,2013-04-01 20:59:00,
2013-04-01 17:04:00,63.5,59.2,29.82,SSW,195,3.0,7.0,86,0.00,CLR,,0.03,WeatherDisplay:10.37,2013-04-01 21:04:00,
2013-04-01 17:09:00,63.7,59.4,29.82,SSW,197,5.0,10.0,86,0.00,CLR,,0.03,WeatherDisplay:10.37,2013-04-01 21:09:00,
2013-04-01 17:14:00,63.7,59.4,29.82,South,190,1.7,3.5,86,0.00,CLR,,0.03,WeatherDisplay:10.37,2013-04-01 21:14:00,
2013-04-01 17:19:00,63.8,59.5,29.82,SSW,197,2.0,5.0,86,0.00,CLR,,0.03,WeatherDisplay:10.37,2013-04-01 21:19:00,
2013-04-01 17:24:00,63.6,59.0,29.82,SSW,201,3.0,7.0,85,0.00,CLR,,0.03,WeatherDisplay:10.37,2013-04-01 21:24:00,
2013-04-01 17:29:00,63.5,59.2,29.82,SSW,210,3.0,7.0,86,0.00,CLR,,0.03,WeatherDisplay:10.37,2013-04-01 21:29:00,
2013-04-01 17:34:00,63.6,59.3,29.83,SSW,209,5.0,8.0,86,0.00,CLR,,0.03,WeatherDisplay:10.37,2013-04-01 21:34:00,
2013-04-01 17:39:00,63.1,58.8,29.83,South,189,1.0,7.0,86,0.00,CLR,,0.03,WeatherDisplay:10.37,2013-04-01 21:39:00,
2013-04-01 17:44:00,62.6,58.3,29.83,South,189,5.0,9.0,86,0.00,CLR,,0.03,WeatherDisplay:10.37,2013-04-01 21:44:00,
2013-04-01 17:49:00,62.2,58.6,29.83,South,191,3.0,7.0,88,0.00,CLR,,0.03,WeatherDisplay:10.37,2013-04-01 21:49:00,
2013-04-01 17:55:00,62.1,58.5,29.83,SSW,196,3.1,6.9,88,0.00,CLR,,0.03,WeatherDisplay:10.37,2013-04-01 21:55:00,
2013-04-01 18:00:00,61.8,58.2,29.83,SSW,213,4.0,5.8,88,0.00,CLR,,0.03,WeatherDisplay:10.37,2013-04-01 22:00:00,
2013-04-01 18:05:00,61.6,58.3,29.83,SSW,196,3.9,5.8,89,0.00,CLR,,0.03,WeatherDisplay:10.37,2013-04-01 22:05:00,
2013-04-01 18:10:00,61.4,58.4,29.83,SSW,196,0.9,2.0,90,0.00,CLR,,0.03,WeatherDisplay:10.37,2013-04-01 22:10:00,
2013-04-01 18:15:00,61.6,58.6,29.83,SSW,194,1.4,3.5,90,0.00,CLR,,0.03,WeatherDisplay:10.37,2013-04-01 22:15:00,
2013-04-01 18:21:00,61.8,58.8,29.83,South,171,1.4,3.5,90,0.00,CLR,,0.03,WeatherDisplay:10.37,2013-04-01 22:21:00,
2013-04-01 18:26:00,61.9,58.9,29.83,SSE,150,0.0,0.0,90,0.00,CLR,,0.03,WeatherDisplay:10.37,2013-04-01 22:26:00,
2013-04-01 18:31:00,62.0,58.7,29.83,South,191,1.2,2.3,89,0.00,CLR,,0.03,WeatherDisplay:10.37,2013-04-01 22:31:00,
2013-04-01 18:37:00,62.0,58.7,29.83,SSW,200,0.2,2.3,89,0.00,CLR,,0.03,WeatherDisplay:10.37,2013-04-01 22:37:00,
2013-04-01 18:42:00,62.0,58.7,29.84,SSW,200,2.4,4.6,89,0.00,CLR,,0.03,WeatherDisplay:10.37,2013-04-01 22:42:00,
2013-04-01 18:47:00,61.9,58.6,29.84,SSW,205,1.1,4.0,89,0.00,CLR,,0.03,WeatherDisplay:10.37,2013-04-01 22:47:00,
2013-04-01 18:52:00,61.8,58.5,29.84,SSW,206,0.0,3.5,89,0.00,CLR,,0.03,WeatherDisplay:10.37,2013-04-01 22:52:00,
2013-04-01 18:57:00,61.8,58.5,29.84,SSW,206,0.0,0.0,89,0.00,CLR,,0.03,WeatherDisplay:10.37,2013-04-01 22:57:00,
2013-04-01 19:02:00,61.7,58.4,29.84,SSW,206,0.2,0.0,89,0.00,CLR,,0.03,WeatherDisplay:10.37,2013-04-01 23:02:00,
2013-04-01 19:07:00,61.6,58.3,29.84,SSW,206,0.0,2.3,89,0.00,CLR,,0.03,WeatherDisplay:10.37,2013-04-01 23:07:00,
2013-04-01 19:12:00,61.4,58.4,29.84,SSW,206,1.3,3.5,90,0.00,CLR,,0.03,WeatherDisplay:10.37,2013-04-01 23:12:00,
2013-04-01 19:17:00,61.2,58.2,29.84,SSW,206,1.2,2.3,90,0.00,CLR,,0.03,WeatherDisplay:10.37,2013-04-01 23:17:00,
2013-04-01 19:22:00,61.0,58.0,29.84,SSW,206,0.0,1.1,90,0.00,CLR,,0.03,WeatherDisplay:10.37,2013-04-01 23:22:00,
2013-04-01 19:28:00,60.7,57.7,29.85,SSW,206,0.8,2.3,90,0.00,CLR,,0.03,WeatherDisplay:10.37,2013-04-01 23:28:00,
2013-04-01 19:33:00,60.3,57.7,29.85,SW,214,0.2,2.3,91,0.00,CLR,,0.03,WeatherDisplay:10.37,2013-04-01 23:33:00,
2013-04-01 19:38:00,60.0,57.4,29.85,SW,214,1.5,2.3,91,0.00,CLR,,0.03,WeatherDisplay:10.37,2013-04-01 23:38:00,
2013-04-01 19:43:00,59.7,57.1,29.85,South,189,1.1,2.3,91,0.00,CLR,,0.03,WeatherDisplay:10.37,2013-04-01 23:43:00,
2013-04-01 19:48:00,59.4,57.1,29.85,South,190,0.9,1.1,92,0.00,CLR,,0.03,WeatherDisplay:10.37,2013-04-01 23:48:00,
2013-04-01 19:53:00,59.2,56.9,29.85,SSW,192,0.8,3.5,92,0.00,CLR,,0.03,WeatherDisplay:10.37,2013-04-01 23:53:00,
2013-04-01 19:59:00,58.9,56.9,29.85,SSW,192,0.6,2.0,93,0.00,CLR,,0.03,WeatherDisplay:10.37,2013-04-01 23:59:00,
2013-04-01 20:04:00,58.7,56.7,29.85,South,190,1.5,3.5,93,0.00,CLR,,0.03,WeatherDisplay:10.37,2013-04-02 00:04:00,
2013-04-01 20:09:00,58.5,56.5,29.86,SSW,209,1.4,3.5,93,0.00,CLR,,0.03,WeatherDisplay:10.37,2013-04-02 00:09:00,
2013-04-01 20:14:00,58.3,56.3,29.86,SSW,209,0.5,2.3,93,0.00,CLR,,0.03,WeatherDisplay:10.37,2013-04-02 00:14:00,
2013-04-01 20:19:00,58.2,56.5,29.86,SSW,200,1.2,4.6,94,0.00,CLR,,0.03,WeatherDisplay:10.37,2013-04-02 00:19:00,
2013-04-01 20:24:00,58.1,56.4,29.86,SSW,200,1.4,3.5,94,0.00,CLR,,0.03,WeatherDisplay:10.37,2013-04-02 00:24:00,
2013-04-01 20:29:00,58.0,56.3,29.86,SSW,202,1.3,3.5,94,0.00,CLR,,0.03,WeatherDisplay:10.37,2013-04-02 00:29:00,
2013-04-01 20:34:00,57.9,56.5,29.86,SSW,202,1.4,3.5,95,0.00,CLR,,0.03,WeatherDisplay:10.37,2013-04-02 00:34:00,
2013-04-01 20:39:00,57.8,56.4,29.86,SSW,202,1.0,4.0,95,0.00,CLR,,0.03,WeatherDisplay:10.37,2013-04-02 00:39:00,
2013-04-01 20:44:00,57.7,56.3,29.86,South,191,2.0,5.0,95,0.00,CLR,,0.03,WeatherDisplay:10.37,2013-04-02 00:44:00,
2013-04-01 20:49:00,57.6,56.2,29.86,South,185,2.0,4.0,95,0.00,CLR,,0.03,WeatherDisplay:10.37,2013-04-02 00:49:00,
2013-04-01 20:54:00,57.5,56.1,29.87,South,187,2.0,5.0,95,0.00,CLR,,0.03,WeatherDisplay:10.37,2013-04-02 00:54:00,
2013-04-01 20:59:00,57.5,56.1,29.87,South,188,0.0,5.0,95,0.00,CLR,,0.03,WeatherDisplay:10.37,2013-04-02 00:59:00,
2013-04-01 21:04:00,57.3,55.9,29.87,South,188,0.0,0.0,95,0.00,CLR,,0.03,WeatherDisplay:10.37,2013-04-02 01:04:00,
2013-04-01 21:09:00,57.2,55.8,29.87,South,188,2.0,4.0,95,0.00,CLR,,0.03,WeatherDisplay:10.37,2013-04-02 01:09:00,
2013-04-01 21:14:00,57.2,56.1,29.87,South,188,2.0,4.0,96,0.00,CLR,,0.03,WeatherDisplay:10.37,2013-04-02 01:14:00,
2013-04-01 21:19:00,57.1,56.0,29.87,South,189,2.9,3.5,96,0.00,CLR,,0.03,WeatherDisplay:10.37,2013-04-02 01:19:00,
2013-04-01 21:24:00,57.1,56.0,29.87,South,189,1.0,5.0,96,0.00,CLR,,0.03,WeatherDisplay:10.37,2013-04-02 01:24:00,
2013-04-01 21:29:00,57.0,55.9,29.87,South,179,2.0,5.0,96,0.00,CLR,,0.03,WeatherDisplay:10.37,2013-04-02 01:29:00,
2013-04-01 21:34:00,57.0,55.9,29.88,South,180,1.0,5.0,96,0.00,CLR,,0.03,WeatherDisplay:10.37,2013-04-02 01:34:00,
2013-04-01 21:39:00,57.0,55.9,29.88,SSW,211,1.1,2.3,96,0.00,CLR,,0.03,WeatherDisplay:10.37,2013-04-02 01:39:00,
2013-04-01 21:44:00,56.9,55.8,29.88,SSW,208,2.0,4.0,96,0.00,CLR,,0.03,WeatherDisplay:10.37,2013-04-02 01:44:00,
2013-04-01 21:49:00,56.9,55.8,29.88,SSW,196,2.2,3.5,96,0.00,CLR,,0.03,WeatherDisplay:10.37,2013-04-02 01:49:00,
2013-04-01 21:54:00,56.9,55.7,29.88,SSW,201,1.0,6.0,96,0.00,CLR,,0.03,WeatherDisplay:10.37,2013-04-02 01:54:00,
2013-04-01 21:59:00,56.8,55.7,29.88,SSW,207,1.0,4.0,96,0.00,CLR,,0.03,WeatherDisplay:10.37,2013-04-02 01:59:00,
2013-04-01 22:04:00,56.7,55.6,29.88,SSW,207,0.0,3.0,96,0.00,CLR,,0.03,WeatherDisplay:10.37,2013-04-02 02:04:00,
2013-04-01 22:09:00,56.7,55.6,29.88,SSW,207,2.0,4.0,96,0.00,CLR,,0.03,WeatherDisplay:10.37,2013-04-02 02:09:00,
2013-04-01 22:14:00,56.7,55.6,29.88,SSW,207,2.1,3.5,96,0.00,CLR,,0.03,WeatherDisplay:10.37,2013-04-02 02:14:00,
2013-04-01 22:20:00,56.7,55.6,29.88,SSW,207,1.5,3.5,96,0.00,CLR,,0.03,WeatherDisplay:10.37,2013-04-02 02:20:00,
2013-04-01 22:25:00,56.7,55.9,29.89,SSW,207,2.0,5.8,97,0.00,CLR,,0.03,WeatherDisplay:10.37,2013-04-02 02:25:00,
2013-04-01 22:30:00,56.8,56.0,29.89,SSW,207,0.5,3.5,97,0.00,CLR,,0.03,WeatherDisplay:10.37,2013-04-02 02:30:00,
2013-04-01 22:35:00,56.7,55.6,29.89,SSW,207,0.0,2.3,96,0.00,CLR,,0.03,WeatherDisplay:10.37,2013-04-02 02:35:00,
2013-04-01 22:41:00,56.6,55.5,29.89,SSW,207,0.0,0.0,96,0.00,CLR,,0.03,WeatherDisplay:10.37,2013-04-02 02:41:00,
2013-04-01 22:46:00,56.5,55.4,29.89,SSW,207,1.4,2.3,96,0.00,CLR,,0.03,WeatherDisplay:10.37,2013-04-02 02:46:00,
2013-04-01 22:51:00,56.5,55.4,29.89,SSW,207,0.0,0.0,96,0.00,CLR,,0.03,WeatherDisplay:10.37,2013-04-02 02:51:00,
2013-04-01 22:56:00,56.3,55.5,29.89,SSW,207,0.0,0.0,97,0.00,CLR,,0.03,WeatherDisplay:10.37,2013-04-02 02:56:00,
2013-04-01 23:02:00,56.2,55.4,29.89,SSW,207,1.2,3.5,97,0.00,CLR,,0.03,WeatherDisplay:10.37,2013-04-02 03:02:00,
2013-04-01 23:07:00,56.1,55.0,29.89,SSW,207,0.0,0.0,96,0.00,CLR,,0.03,WeatherDisplay:10.37,2013-04-02 03:07:00,
2013-04-01 23:12:00,55.9,54.8,29.89,SSW,207,0.0,0.0,96,0.00,CLR,,0.03,WeatherDisplay:10.37,2013-04-02 03:12:00,
2013-04-01 23:17:00,55.6,54.5,29.89,SSW,207,0.0,0.0,96,0.00,CLR,,0.03,WeatherDisplay:10.37,2013-04-02 03:17:00,
2013-04-01 23:22:00,55.3,54.2,29.89,SSW,207,0.7,1.1,96,0.00,CLR,,0.03,WeatherDisplay:10.37,2013-04-02 03:22:00,
2013-04-01 23:27:00,55.1,54.0,29.89,SSW,207,0.5,1.1,96,0.00,CLR,,0.03,WeatherDisplay:10.37,2013-04-02 03:27:00,
2013-04-01 23:33:00,55.1,54.3,29.89,SSW,207,0.1,1.1,97,0.00,CLR,,0.03,WeatherDisplay:10.37,2013-04-02 03:33:00,
2013-04-01 23:38:00,55.1,54.3,29.90,SSW,206,0.0,0.0,97,0.00,CLR,,0.03,WeatherDisplay:10.37,2013-04-02 03:38:00,
2013-04-01 23:43:00,55.0,54.2,29.90,SSW,207,1.8,3.5,97,0.00,CLR,,0.03,WeatherDisplay:10.37,2013-04-02 03:43:00,
2013-04-01 23:48:00,55.2,54.4,29.90,SSW,207,0.1,1.1,97,0.00,CLR,,0.03,WeatherDisplay:10.37,2013-04-02 03:48:00,
2013-04-01 23:53:00,55.2,54.4,29.90,SSW,207,0.0,0.0,97,0.00,CLR,,0.03,WeatherDisplay:10.37,2013-04-02 03:53:00,
2013-04-01 23:58:00,55.1,54.3,29.90,SSW,207,0.0,0.0,97,0.00,CLR,,0.03,WeatherDisplay:10.37,2013-04-02 03:58:00,